Location: Long Geng
(2.6167°N, 114.1333°E)
Time: 00:26:15
(UTC+00:00)

ATLAS 3B R/B - Pass Details

Date: 14 May 2021
Orbit: 1006 x 1189 km, 63.8° (Epoch: 10 June)

Event Time Altitude Azimuth Distance (km) Brightness Sun altitude
Exits shadow 19:44:42 19° 142° (SE) 2,191 4.4 -35.3°
Maximum altitude 19:47:05 24° 113° (ESE) 1,971 4.4 -34.7°
Drops below altitude 10° 19:52:05 10° 62° (ENE) 2,771 5.7 -33.6°
Sets 19:55:12 0° 48° (NE) 3,722 6.5 -32.9°
